When you browse on this site, cookies collect data to enhance your experience and personalize the content and advertising you see.
Visit our Privacy Policy to learn more. By continuing to use the site, you agree to this use of cookies and data.
  • In Switzerland
  • List of Countries
  • For 7 days
  • Water Temperature
  • Weather Map
  • Weather Widgets
  • user-avatar
    Login

    Hourly Weather Liege

    Today, 29 February, Saturday

    Time Temperature Precipitation Wind Pressure Humidity
    00:00 +6°C° 0 mm 7 mps 743 mmHg 91%
    01:00 +6°C° 0 mm 7 mps 742 mmHg 90%
    02:00 +8°C° 0 mm 7 mps 742 mmHg 88%
    03:00 +7°C° 0 mm 8 mps 741 mmHg 86%
    04:00 +6°C° 0 mm 7 mps 740 mmHg 86%
    05:00 +6°C° 0 mm 7 mps 739 mmHg 86%
    06:00 +5°C° 0 mm 6 mps 739 mmHg 86%
    07:00 +6°C° 0 mm 8 mps 737 mmHg 82%
    08:00 +7°C° 0 mm 9 mps 736 mmHg 77%
    09:00 +8°C° 0 mm 10 mps 735 mmHg 72%
    10:00 +8°C° 0.1 mm 10 mps 735 mmHg 74%
    11:00 +9°C° 0.1 mm 11 mps 734 mmHg 75%
    12:00 +9°C° 0.1 mm 11 mps 734 mmHg 76%
    13:00 +8°C° 0.5 mm 10 mps 734 mmHg 77%
    14:00 +6°C° 0.5 mm 9 mps 735 mmHg 77%
    15:00 +5°C° 0.5 mm 7 mps 735 mmHg 78%
    16:00 +4°C° 0.4 mm 7 mps 736 mmHg 79%
    17:00 +3°C° 0.4 mm 6 mps 736 mmHg 80%
    18:00 +3°C° 0.4 mm 6 mps 737 mmHg 80%
    19:00 +3°C° 0 mm 6 mps 737 mmHg 81%
    20:00 +2°C° 0 mm 6 mps 737 mmHg 81%
    21:00 +2°C° 0 mm 6 mps 737 mmHg 81%
    22:00 +2°C° 0.1 mm 6 mps 737 mmHg 82%
    23:00 +3°C° 0.1 mm 7 mps 737 mmHg 83%

    Tomorrow, 1 March, Sunday

    Time Temperature Precipitation Wind Pressure Humidity
    00:00 +3°C° 0.1 mm 7 mps 738 mmHg 84%
    01:00 +3°C° 0.1 mm 7 mps 737 mmHg 83%
    02:00 +1°C° 0.1 mm 8 mps 737 mmHg 83%
    03:00 +1°C° 0.1 mm 8 mps 737 mmHg 82%
    04:00 +1°C° 0 mm 8 mps 737 mmHg 82%
    05:00 +1°C° 0 mm 8 mps 738 mmHg 82%
    06:00 +1°C° 0 mm 8 mps 738 mmHg 82%
    07:00 +1°C° 0 mm 8 mps 738 mmHg 80%
    08:00 +2°C° 0 mm 9 mps 738 mmHg 78%
    09:00 +2°C° 0 mm 9 mps 738 mmHg 75%
    10:00 +3°C° 0 mm 9 mps 738 mmHg 73%
    11:00 +3°C° 0 mm 9 mps 738 mmHg 71%
    12:00 +5°C° 0 mm 9 mps 738 mmHg 69%
    13:00 +6°C° 0.1 mm 8 mps 737 mmHg 69%
    14:00 +6°C° 0.1 mm 7 mps 736 mmHg 69%
    15:00 +6°C° 0.1 mm 7 mps 736 mmHg 68%
    16:00 +5°C° 0.8 mm 6 mps 735 mmHg 76%
    17:00 +6°C° 0.8 mm 5 mps 734 mmHg 84%
    18:00 +5°C° 0.8 mm 4 mps 733 mmHg 92%
    19:00 +5°C° 0.9 mm 4 mps 733 mmHg 92%
    20:00 +5°C° 0.9 mm 4 mps 732 mmHg 92%
    21:00 +4°C° 0.9 mm 4 mps 732 mmHg 92%
    22:00 +4°C° 0.6 mm 4 mps 732 mmHg 91%
    23:00 +3°C° 0.6 mm 5 mps 733 mmHg 89%

    Day after tomorrow, 2 March, Monday

    Time Temperature Precipitation Wind Pressure Humidity
    00:00 +3°C° 0.6 mm 6 mps 733 mmHg 88%
    01:00 +2°C° 0 mm 6 mps 733 mmHg 88%
    02:00 +2°C° 0 mm 5 mps 733 mmHg 89%
    03:00 +1°C° 0 mm 5 mps 733 mmHg 89%
    04:00 +1°C° 0.5 mm 5 mps 733 mmHg 91%
    05:00 +2°C° 0.5 mm 6 mps 732 mmHg 92%
    06:00 +2°C° 0.5 mm 6 mps 731 mmHg 94%
    07:00 +2°C° 0.4 mm 6 mps 730 mmHg 91%
    08:00 +3°C° 0.4 mm 6 mps 730 mmHg 89%
    09:00 +4°C° 0.4 mm 6 mps 729 mmHg 87%
    10:00 +4°C° 0.3 mm 7 mps 729 mmHg 82%
    11:00 +5°C° 0.3 mm 7 mps 729 mmHg 77%
    12:00 +6°C° 0.3 mm 8 mps 729 mmHg 72%
    13:00 +6°C° 0.3 mm 8 mps 729 mmHg 76%
    14:00 +5°C° 0.3 mm 8 mps 730 mmHg 81%
    15:00 +4°C° 0.3 mm 8 mps 730 mmHg 85%
    16:00 +3°C° 0.1 mm 7 mps 731 mmHg 84%
    17:00 +2°C° 0.1 mm 5 mps 732 mmHg 84%
    18:00 +1°C° 0.1 mm 4 mps 733 mmHg 83%
    19:00 +1°C° 0 mm 4 mps 734 mmHg 84%
    20:00 +1°C° 0 mm 4 mps 735 mmHg 85%
    21:00 0°C° 0 mm 4 mps 736 mmHg 87%
    22:00 0°C° 0 mm 4 mps 736 mmHg 87%
    23:00 0°C° 0 mm 4 mps 737 mmHg 88%

    3 March, Tuesday

    Time Temperature Precipitation Wind Pressure Humidity
    00:00 0°C° 0 mm 4 mps 737 mmHg 88%
    01:00 -1°C° 0 mm 4 mps 737 mmHg 89%
    02:00 -1°C° 0 mm 4 mps 738 mmHg 91%
    03:00 -1°C° 0 mm 4 mps 738 mmHg 92%
    04:00 -1°C° 0 mm 4 mps 739 mmHg 92%
    05:00 0°C° 0 mm 3 mps 739 mmHg 93%
    06:00 -1°C° 0 mm 3 mps 740 mmHg 93%
    07:00 -1°C° 0 mm 4 mps 740 mmHg 91%
    08:00 +1°C° 0 mm 4 mps 740 mmHg 89%
    09:00 +2°C° 0 mm 5 mps 741 mmHg 87%
    10:00 +2°C° 0.1 mm 5 mps 741 mmHg 89%
    11:00 +2°C° 0.1 mm 5 mps 741 mmHg 91%
    12:00 +2°C° 0.1 mm 5 mps 742 mmHg 93%
    13:00 +2°C° 0.2 mm 5 mps 742 mmHg 93%
    14:00 +2°C° 0.2 mm 5 mps 742 mmHg 92%
    15:00 +3°C° 0.2 mm 4 mps 742 mmHg 92%
    16:00 +3°C° 0.2 mm 4 mps 742 mmHg 91%
    17:00 +3°C° 0.2 mm 3 mps 743 mmHg 89%
    18:00 +3°C° 0.2 mm 2 mps 743 mmHg 88%
    19:00 +3°C° 0 mm 2 mps 744 mmHg 88%
    20:00 +2°C° 0 mm 2 mps 744 mmHg 88%
    21:00 +1°C° 0 mm 2 mps 744 mmHg 88%
    22:00 +1°C° 0 mm 2 mps 745 mmHg 89%
    23:00 +1°C° 0 mm 2 mps 745 mmHg 89%

    4 March, Wednesday

    Time Temperature Precipitation Wind Pressure Humidity
    00:00 0°C° 0 mm 3 mps 745 mmHg 90%
    01:00 0°C° 0 mm 3 mps 745 mmHg 91%
    02:00 0°C° 0 mm 3 mps 745 mmHg 92%
    03:00 0°C° 0 mm 3 mps 745 mmHg 93%
    04:00 +1°C° 0 mm 3 mps 745 mmHg 93%
    05:00 +2°C° 0 mm 2 mps 745 mmHg 94%
    06:00 +2°C° 0 mm 2 mps 745 mmHg 94%
    07:00 +2°C° 0 mm 3 mps 745 mmHg 91%
    08:00 +3°C° 0 mm 3 mps 746 mmHg 88%
    09:00 +3°C° 0 mm 3 mps 746 mmHg 84%
    10:00 +4°C° 0.1 mm 3 mps 746 mmHg 79%
    11:00 +7°C° 0.1 mm 3 mps 746 mmHg 74%
    12:00 +8°C° 0.1 mm 3 mps 746 mmHg 69%
    13:00 +8°C° 0.2 mm 3 mps 746 mmHg 68%
    14:00 +8°C° 0.2 mm 3 mps 746 mmHg 67%
    15:00 +7°C° 0.2 mm 4 mps 746 mmHg 65%
    16:00 +7°C° 0.1 mm 3 mps 746 mmHg 71%
    17:00 +5°C° 0.1 mm 2 mps 746 mmHg 77%
    18:00 +4°C° 0.1 mm 2 mps 746 mmHg 82%
    19:00 +4°C° 0 mm 2 mps 746 mmHg 84%
    20:00 +3°C° 0 mm 2 mps 746 mmHg 86%
    21:00 +3°C° 0 mm 2 mps 746 mmHg 88%
    22:00 +2°C° 0 mm 2 mps 746 mmHg 88%
    23:00 +2°C° 0 mm 2 mps 746 mmHg 89%

    5 March, Thursday

    Time Temperature Precipitation Wind Pressure Humidity
    00:00 +1°C° 0 mm 2 mps 745 mmHg 89%
    01:00 +2°C° 0 mm 2 mps 745 mmHg 89%
    02:00 +1°C° 0 mm 3 mps 744 mmHg 89%
    03:00 +1°C° 0 mm 3 mps 744 mmHg 89%
    04:00 +1°C° 0.2 mm 3 mps 743 mmHg 90%
    05:00 +1°C° 0.2 mm 3 mps 742 mmHg 91%
    06:00 +1°C° 0.2 mm 4 mps 742 mmHg 92%
    07:00 +1°C° 1 mm 4 mps 741 mmHg 93%
    08:00 +3°C° 1 mm 4 mps 741 mmHg 94%
    09:00 +3°C° 1 mm 4 mps 740 mmHg 95%
    10:00 +3°C° 1.1 mm 3 mps 740 mmHg 95%
    11:00 +4°C° 1.1 mm 3 mps 740 mmHg 95%
    12:00 +5°C° 1.1 mm 2 mps 739 mmHg 95%
    13:00 +5°C° 0.3 mm 2 mps 739 mmHg 95%
    14:00 +5°C° 0.3 mm 2 mps 739 mmHg 96%
    15:00 +5°C° 0.3 mm 2 mps 739 mmHg 96%
    16:00 +5°C° 0 mm 2 mps 739 mmHg 96%
    17:00 +4°C° 0 mm 2 mps 740 mmHg 97%
    18:00 +4°C° 0 mm 2 mps 740 mmHg 97%
    19:00 +4°C° 0 mm 2 mps 740 mmHg 97%
    20:00 +4°C° 0 mm 2 mps 741 mmHg 97%
    21:00 +4°C° 0 mm 2 mps 741 mmHg 97%
    22:00 +4°C° 0 mm 2 mps 742 mmHg 97%
    23:00 +4°C° 0 mm 2 mps 742 mmHg 97%
    Show more